Simultaneous Nadir Overpasses (SNOs) Predictions

Prediction of SNOs between LANDSAT-8 and METOP-A Satellite Orbit:

Table of predicted SNOs for the next 14.0 days since TLE Epoch: 8/23/2014
Index Date (LANDSAT-8) Time (LANDSAT-8) Lat,Lon (LANDSAT-8) SZA (LANDSAT-8 ) Date (METOP-A) Time (METOP-A) Lat,Lon (METOP-A) SZA (METOP-A ) Distance(km) Time Diff (sec)
1 08/23/2014 13:48:31 81.09, 12.25 71.73 08/23/2014 13:47:21 81.08, 12.23 71.70 0.27 70
2 08/23/2014 14:37:57 -81.11,-179.78 108.21 08/23/2014 14:38:00 -81.11,-179.65 108.19 2.18 3
3 08/26/2014 09:22:45 81.09, 78.73 72.72 08/26/2014 09:21:44 81.08, 78.57 72.67 2.87 61
4 08/26/2014 10:12:11 -81.11,-113.28 107.22 08/26/2014 10:12:23 -81.11,-113.31 107.22 0.59 12
5 08/29/2014 04:57:00 81.09, 145.13 73.72 08/29/2014 04:56:07 81.09, 145.25 73.71 2.21 53
6
